West Freugh Airport,

4:32 PM GMT on February 25, 2017 (GMT +0000)
West Freugh Airport

Weather History for EGOY - April, 2014

Change the Weather History Date:

Tuesday, April 22, 2014

  Actual Average Record
Temperature  
Mean Temperature 55 °F -  
Max Temperature 61 °F - - ()
Min Temperature 49 °F - - ()
Degree Days  
Heating Degree Days 10    
Growing Degree Days 5 (Base 50)    
Moisture  
Dew Point 47 °F    
Average Humidity 73    
Maximum Humidity 100    
Minimum Humidity 46    
Precipitation  
Precipitation 0.02 in - - ()
Sea Level Pressure  
Sea Level Pressure 29.78 in    
Wind  
Wind Speed 12 mph ()    
Max Wind Speed 18 mph    
Max Gust Speed -    
Visibility 12.0 miles    
Events Rain    
T = Trace of Precipitation, MM = Missing Value Source: Averaged Metar Reports

Daily Weather History Graph

Daily Weather History Graph

Search for Another Location

Airport or City:

Trip Planner

Search our weather history database for the weather conditions in past years. The results will help you decide how hot, cold, wet, or windy it might be!

Date:

Astronomy

Apr. 22, 2014 Rise Set
Actual Time 6:00 AM BST 8:37 PM BST
Civil Twilight 5:20 AM BST 9:17 PM BST
Nautical Twilight 4:28 AM BST 10:10 PM BST
Astronomical Twilight 3:23 AM BST 11:16 PM BST
Moon 2:49 AM BST (4/22) 12:14 PM BST (4/22)
Length of Visible Light 15h 57m
Length of Day
14h 36m
Waning Gibbous, 49% of the Moon is Illuminated
Apr 22
Waning Gibbous
Apr 29
New
May 7
First Quarter
May 14
Full
May 21
Last Quarter

Hourly Weather History & Observations

Time (BST) Temp. Dew Point Humidity Pressure Visibility Wind Dir Wind Speed Gust Speed Precip Events Conditions
12:00 AM 53 °F 40 °F 50% 29.83 in 28 mi ENE 16.1 mph - -   Partly Cloudy
1:00 AM 54 °F 39 °F 46% 29.82 in 25 mi East 16.1 mph - -   Mostly Cloudy
2:00 AM 55 °F 40 °F 46% 29.81 in 25 mi ENE 18.4 mph - -   Mostly Cloudy
3:00 AM 54 °F 41 °F 51% 29.81 in 22 mi East 15.0 mph - -   Partly Cloudy
4:00 AM 51 °F 42 °F 63% 29.81 in 19 mi ESE 2.3 mph - -   Partly Cloudy
5:00 AM 51 °F 43 °F 67% 29.81 in 19 mi East 9.2 mph - -   Overcast
6:00 AM 51 °F 44 °F 70% 29.80 in 16 mi ENE 12.7 mph - -   Mostly Cloudy
7:00 AM 51 °F 46 °F 75% 29.79 in 17 mi ENE 11.5 mph - -   Scattered Clouds
8:00 AM 53 °F 46 °F 70% 29.79 in 13 mi East 13.8 mph - -   Scattered Clouds
9:00 AM 56 °F 48 °F 67% 29.78 in 14 mi ENE 6.9 mph - -   Scattered Clouds
10:00 AM 57 °F 48 °F 63% 29.77 in 16 mi East 15.0 mph - -   Mostly Cloudy
11:00 AM 62 °F 48 °F 50% 29.77 in 25 mi East 17.3 mph - -   Scattered Clouds
12:00 PM 55 °F 48 °F 71% 29.78 in 10 mi ESE 17.3 mph - - Rain Light Rain Showers
1:00 PM 56 °F 49 °F 71% 29.77 in 12 mi ESE 18.4 mph - - Rain Rain
2:00 PM 53 °F 51 °F 88% 29.76 in 6 mi ESE 13.8 mph - - Rain Light Rain
3:00 PM 54 °F 50 °F 82% 29.76 in 11 mi East 13.8 mph - - Rain Light Rain Showers
4:00 PM 56 °F 52 °F 80% 29.74 in 14 mi SE 9.2 mph - - Rain Rain
5:00 PM 56 °F 48 °F 67% 29.73 in 18 mi ESE 13.8 mph - -   Mostly Cloudy
6:00 PM 54 °F 49 °F 78% 29.74 in 25 mi ESE 10.4 mph - -   Mostly Cloudy
7:00 PM 52 °F 50 °F 89% 29.74 in 12 mi ESE 15.0 mph - -   Scattered Clouds
8:00 PM 50 °F 50 °F 100% 29.75 in 4 mi ESE 10.4 mph - - Rain Light Rain
9:00 PM 50 °F 50 °F 99% 29.76 in 6 mi East 11.5 mph - - Rain Rain
10:00 PM 50 °F 50 °F 100% 29.77 in 5 mi ESE 10.4 mph - - Rain Drizzle
11:00 PM 50 °F 50 °F 99% 29.78 in 4 mi SE 10.4 mph - -   Mist